Location: ??????
(30.5519°N, 47.7720°E)
Time: 18:04:28
(UTC+00:00)

NOSS 2-1 (C) - Pass Details

Date: 24 January 2021
Orbit: 432 x 1770 km, 63.3° (Epoch: 27 February)

Event Time Altitude Azimuth Distance (km) Brightness Sun altitude
Rises 14:52:33 0° 222° (SW) 2,669 8.0 -7.8°
Reaches altitude 10° 14:54:57 10° 230° (SW) 1,666 7.0 -8.3°
Maximum altitude 14:58:19 39° 301° (WNW) 679 4.2 -9.0°
Drops below altitude 10° 15:01:25 10° 13° (NNE) 1,532 5.3 -9.6°
Enters shadow 15:03:02 - 20° (NNE) 2,202 6.1 -9.9°
